Time,TemperatureF,DewpointF,PressureIn,WindDirection,WindDirectionDegrees,WindSpeedMPH,WindSpeedGustMPH,Humidity,HourlyPrecipIn,Conditions,Clouds,dailyrainin,SoftwareType,DateUTC
2013-01-28 00:01:00,39.3,27.4,30.02,WNW,291,4.0,11.0,62,0.00,,---,0.00,VWS V14.01,2013-01-28 08:01:00,
2013-01-28 00:06:00,39.3,27.8,30.02,WNW,286,4.0,11.0,63,0.00,,---,0.00,VWS V14.01,2013-01-28 08:06:00,
2013-01-28 00:11:00,39.1,28.0,30.02,WNW,288,6.0,11.0,64,0.00,,---,0.00,VWS V14.01,2013-01-28 08:11:00,
2013-01-28 00:16:00,38.9,27.8,30.02,West,277,11.0,12.0,64,0.00,,---,0.00,VWS V14.01,2013-01-28 08:16:00,
2013-01-28 00:21:00,38.9,27.8,30.02,West,276,7.0,12.0,64,0.00,,---,0.00,VWS V14.01,2013-01-28 08:21:00,
2013-01-28 00:26:00,38.9,27.4,30.02,WSW,255,9.0,12.0,63,0.00,,---,0.00,VWS V14.01,2013-01-28 08:26:00,
2013-01-28 00:31:00,38.8,27.7,30.02,West,274,5.0,12.0,64,0.00,,---,0.00,VWS V14.01,2013-01-28 08:31:00,
2013-01-28 00:36:00,38.8,28.1,30.02,West,269,6.0,13.0,65,0.00,,---,0.00,VWS V14.01,2013-01-28 08:36:00,
2013-01-28 00:41:00,38.9,27.8,30.02,WNW,285,9.0,13.0,64,0.00,,---,0.00,VWS V14.01,2013-01-28 08:41:00,
2013-01-28 00:46:00,39.0,27.9,30.02,WSW,257,5.0,13.0,64,0.00,,---,0.00,VWS V14.01,2013-01-28 08:46:00,
2013-01-28 00:51:00,39.0,27.9,30.03,WNW,294,6.0,13.0,64,0.00,,---,0.00,VWS V14.01,2013-01-28 08:51:00,
2013-01-28 00:56:00,38.9,27.8,30.03,West,276,10.0,15.0,64,0.00,,---,0.00,VWS V14.01,2013-01-28 08:56:00,
2013-01-28 01:01:00,38.9,28.1,30.03,WNW,290,9.0,12.0,65,0.00,,---,0.00,VWS V14.01,2013-01-28 09:01:00,
2013-01-28 01:06:00,38.7,28.3,30.03,WNW,293,7.0,12.0,66,0.00,,---,0.00,VWS V14.01,2013-01-28 09:06:00,
2013-01-28 01:11:00,38.6,28.6,30.03,WNW,287,8.0,15.0,67,0.00,,---,0.00,VWS V14.01,2013-01-28 09:11:00,
2013-01-28 01:17:00,38.5,28.5,30.03,West,264,8.0,15.0,67,0.00,,---,0.00,VWS V14.01,2013-01-28 09:17:00,
2013-01-28 01:22:00,38.6,28.2,30.03,West,262,3.0,15.0,66,0.00,,---,0.00,VWS V14.01,2013-01-28 09:22:00,
2013-01-28 01:27:00,38.6,28.2,30.03,West,266,6.0,16.0,66,0.00,,---,0.00,VWS V14.01,2013-01-28 09:27:00,
2013-01-28 01:32:00,38.5,28.1,30.03,West,276,14.0,16.0,66,0.00,,---,0.00,VWS V14.01,2013-01-28 09:32:00,
2013-01-28 01:37:00,38.4,28.0,30.04,WNW,297,7.0,16.0,66,0.00,,---,0.00,VWS V14.01,2013-01-28 09:37:00,
2013-01-28 01:42:00,38.3,28.0,30.03,NW,311,4.0,16.0,66,0.00,,---,0.00,VWS V14.01,2013-01-28 09:42:00,
2013-01-28 01:47:00,38.2,27.9,30.03,West,273,7.0,16.0,66,0.00,,---,0.00,VWS V14.01,2013-01-28 09:47:00,
2013-01-28 01:52:00,38.1,27.8,30.03,West,272,7.0,16.0,66,0.00,,---,0.00,VWS V14.01,2013-01-28 09:52:00,
2013-01-28 01:57:00,38.1,28.1,30.04,West,269,5.0,16.0,67,0.00,,---,0.00,VWS V14.01,2013-01-28 09:57:00,
2013-01-28 02:02:00,38.0,28.0,30.04,WNW,293,4.0,10.0,67,0.00,,---,0.00,VWS V14.01,2013-01-28 10:02:00,
2013-01-28 02:07:00,37.9,27.9,30.04,West,269,11.0,14.0,67,0.00,,---,0.00,VWS V14.01,2013-01-28 10:07:00,
2013-01-28 02:12:00,38.0,28.0,30.04,WNW,294,4.0,14.0,67,0.00,,---,0.00,VWS V14.01,2013-01-28 10:12:00,
2013-01-28 02:17:00,38.0,28.0,30.04,WNW,300,10.0,14.0,67,0.00,,---,0.00,VWS V14.01,2013-01-28 10:17:00,
2013-01-28 02:22:00,38.0,27.7,30.04,WNW,287,10.0,14.0,66,0.00,,---,0.00,VWS V14.01,2013-01-28 10:22:00,
2013-01-28 02:27:00,38.0,27.7,30.04,WNW,294,9.0,14.0,66,0.00,,---,0.00,VWS V14.01,2013-01-28 10:27:00,
2013-01-28 02:32:00,38.0,27.7,30.05,West,281,6.0,16.0,66,0.00,,---,0.00,VWS V14.01,2013-01-28 10:32:00,
2013-01-28 02:37:00,38.0,27.7,30.05,WNW,293,6.0,16.0,66,0.00,,---,0.00,VWS V14.01,2013-01-28 10:37:00,
2013-01-28 02:42:00,37.9,27.6,30.05,West,278,4.0,16.0,66,0.00,,---,0.00,VWS V14.01,2013-01-28 10:42:00,
2013-01-28 02:47:00,37.9,27.9,30.05,WNW,282,9.0,16.0,67,0.00,,---,0.00,VWS V14.01,2013-01-28 10:47:00,
2013-01-28 02:52:00,37.8,27.8,30.05,West,269,6.0,16.0,67,0.00,,---,0.00,VWS V14.01,2013-01-28 10:52:00,
2013-01-28 02:57:00,37.8,27.5,30.05,WSW,248,8.0,21.0,66,0.00,,---,0.00,VWS V14.01,2013-01-28 10:57:00,
2013-01-28 03:02:00,37.8,27.5,30.05,WNW,290,12.0,18.0,66,0.00,,---,0.00,VWS V14.01,2013-01-28 11:02:00,
2013-01-28 03:07:00,37.7,27.8,30.05,WNW,284,14.0,18.0,67,0.00,,---,0.00,VWS V14.01,2013-01-28 11:07:00,
2013-01-28 03:12:00,37.8,27.5,30.05,West,262,10.0,18.0,66,0.00,,---,0.00,VWS V14.01,2013-01-28 11:12:00,
2013-01-28 03:17:00,37.8,27.5,30.06,WNW,286,11.0,19.0,66,0.00,,---,0.00,VWS V14.01,2013-01-28 11:17:00,
2013-01-28 03:22:00,37.7,27.8,30.06,West,278,6.0,19.0,67,0.00,,---,0.00,VWS V14.01,2013-01-28 11:22:00,
2013-01-28 03:27:00,37.8,27.5,30.06,WNW,283,12.0,19.0,66,0.00,,---,0.00,VWS V14.01,2013-01-28 11:27:00,
2013-01-28 03:32:00,37.8,27.5,30.06,West,271,8.0,19.0,66,0.00,,---,0.00,VWS V14.01,2013-01-28 11:32:00,
2013-01-28 03:37:00,37.9,27.2,30.06,West,271,8.0,19.0,65,0.00,,---,0.00,VWS V14.01,2013-01-28 11:37:00,
2013-01-28 03:42:00,38.3,26.8,30.06,West,277,10.0,19.0,63,0.00,,---,0.00,VWS V14.01,2013-01-28 11:42:00,
2013-01-28 03:47:00,38.5,26.6,30.06,WSW,257,6.0,19.0,62,0.00,,---,0.00,VWS V14.01,2013-01-28 11:47:00,
2013-01-28 03:52:00,38.3,26.4,30.06,West,262,3.0,19.0,62,0.00,,---,0.00,VWS V14.01,2013-01-28 11:52:00,
2013-01-28 03:57:00,38.0,26.5,30.06,WNW,283,8.0,19.0,63,0.00,,---,0.00,VWS V14.01,2013-01-28 11:57:00,
2013-01-28 04:02:00,37.7,26.3,30.06,West,274,7.0,8.0,63,0.00,,---,0.00,VWS V14.01,2013-01-28 12:02:00,
2013-01-28 04:07:00,37.8,26.4,30.06,West,269,4.0,12.0,63,0.00,,---,0.00,VWS V14.01,2013-01-28 12:07:00,
2013-01-28 04:12:00,37.9,26.8,30.06,West,262,6.0,12.0,64,0.00,,---,0.00,VWS V14.01,2013-01-28 12:12:00,
2013-01-28 04:17:00,37.7,26.6,30.06,West,271,4.0,12.0,64,0.00,,---,0.00,VWS V14.01,2013-01-28 12:17:00,
2013-01-28 04:22:00,37.7,27.0,30.06,West,276,12.0,16.0,65,0.00,,---,0.00,VWS V14.01,2013-01-28 12:22:00,
2013-01-28 04:27:00,37.6,27.3,30.06,WNW,302,5.0,16.0,66,0.00,,---,0.00,VWS V14.01,2013-01-28 12:27:00,
2013-01-28 04:32:00,37.2,27.3,30.06,West,280,5.0,16.0,67,0.00,,---,0.00,VWS V14.01,2013-01-28 12:32:00,
2013-01-28 04:37:00,36.7,27.1,30.06,WNW,287,4.0,16.0,68,0.00,,---,0.00,VWS V14.01,2013-01-28 12:37:00,
2013-01-28 04:42:00,36.4,27.2,30.06,WNW,291,3.0,16.0,69,0.00,,---,0.00,VWS V14.01,2013-01-28 12:42:00,
2013-01-28 04:47:00,36.3,27.1,30.06,West,269,5.0,16.0,69,0.00,,---,0.00,VWS V14.01,2013-01-28 12:47:00,
2013-01-28 04:52:00,36.3,27.1,30.05,WNW,287,7.0,16.0,69,0.00,,---,0.00,VWS V14.01,2013-01-28 12:52:00,
2013-01-28 04:58:00,36.3,27.1,30.05,West,263,5.0,16.0,69,0.00,,---,0.00,VWS V14.01,2013-01-28 12:58:00,
2013-01-28 05:03:00,36.3,27.1,30.06,West,260,4.0,6.0,69,0.00,,---,0.00,VWS V14.01,2013-01-28 13:03:00,
2013-01-28 05:08:00,36.3,27.1,30.06,WNW,287,3.0,6.0,69,0.00,,---,0.00,VWS V14.01,2013-01-28 13:08:00,
2013-01-28 05:13:00,36.2,27.4,30.06,WSW,240,3.0,6.0,70,0.00,,---,0.00,VWS V14.01,2013-01-28 13:13:00,
2013-01-28 05:18:00,36.3,27.5,30.06,WNW,283,1.0,6.0,70,0.00,,---,0.00,VWS V14.01,2013-01-28 13:18:00,
2013-01-28 05:23:00,36.3,27.5,30.06,West,276,2.0,6.0,70,0.00,,---,0.00,VWS V14.01,2013-01-28 13:23:00,
2013-01-28 05:28:00,36.6,27.8,30.06,WNW,290,1.0,8.0,70,0.00,,---,0.00,VWS V14.01,2013-01-28 13:28:00,
2013-01-28 05:33:00,36.8,28.0,30.06,WNW,284,1.0,8.0,70,0.00,,---,0.00,VWS V14.01,2013-01-28 13:33:00,
2013-01-28 05:38:00,36.9,28.0,30.06,West,276,6.0,11.0,70,0.00,,---,0.00,VWS V14.01,2013-01-28 13:38:00,
2013-01-28 05:43:00,36.9,28.0,30.07,West,267,8.0,11.0,70,0.00,,---,0.00,VWS V14.01,2013-01-28 13:43:00,
2013-01-28 05:48:00,37.1,28.2,30.07,WNW,295,6.0,11.0,70,0.00,,---,0.00,VWS V14.01,2013-01-28 13:48:00,
2013-01-28 05:53:00,37.2,28.3,30.07,West,269,4.0,11.0,70,0.00,,---,0.00,VWS V14.01,2013-01-28 13:53:00,
2013-01-28 05:58:00,37.4,28.2,30.07,WNW,299,5.0,12.0,69,0.00,,---,0.00,VWS V14.01,2013-01-28 13:58:00,
2013-01-28 06:03:00,37.4,28.5,30.07,West,280,9.0,12.0,70,0.00,,---,0.00,VWS V14.01,2013-01-28 14:03:00,
2013-01-28 06:08:00,37.3,28.4,30.08,West,280,3.0,12.0,70,0.00,,---,0.00,VWS V14.01,2013-01-28 14:08:00,
2013-01-28 06:13:00,37.2,28.3,30.08,WNW,290,6.0,12.0,70,0.00,,---,0.00,VWS V14.01,2013-01-28 14:13:00,
2013-01-28 06:18:00,37.2,28.3,30.08,West,281,4.0,12.0,70,0.00,,---,0.00,VWS V14.01,2013-01-28 14:18:00,
2013-01-28 06:23:00,37.1,28.2,30.08,WNW,293,8.0,12.0,70,0.00,,---,0.00,VWS V14.01,2013-01-28 14:23:00,
2013-01-28 06:28:00,36.9,28.0,30.08,WNW,294,6.0,12.0,70,0.00,,---,0.00,VWS V14.01,2013-01-28 14:28:00,
2013-01-28 06:33:00,36.9,28.0,30.08,NW,304,3.0,12.0,70,0.00,,---,0.00,VWS V14.01,2013-01-28 14:33:00,
2013-01-28 06:38:00,36.9,28.0,30.08,West,263,2.0,12.0,70,0.00,,---,0.00,VWS V14.01,2013-01-28 14:38:00,
2013-01-28 06:43:00,36.9,27.7,30.08,WNW,284,4.0,12.0,69,0.00,,---,0.00,VWS V14.01,2013-01-28 14:43:00,
2013-01-28 06:48:00,36.9,27.7,30.09,WNW,284,4.0,12.0,69,0.00,,---,0.00,VWS V14.01,2013-01-28 14:48:00,
2013-01-28 06:53:00,37.1,27.9,30.09,West,278,4.0,12.0,69,0.00,,---,0.00,VWS V14.01,2013-01-28 14:53:00,
2013-01-28 06:58:00,37.2,27.6,30.09,West,276,3.0,12.0,68,0.00,,---,0.00,VWS V14.01,2013-01-28 14:58:00,
2013-01-28 07:03:00,37.2,27.6,30.09,SW,236,2.0,7.0,68,0.00,,---,0.00,VWS V14.01,2013-01-28 15:03:00,
2013-01-28 07:08:00,37.3,27.7,30.09,WSW,256,1.0,7.0,68,0.00,,---,0.00,VWS V14.01,2013-01-28 15:08:00,
2013-01-28 07:13:00,37.3,27.7,30.09,West,263,3.0,7.0,68,0.00,,---,0.00,VWS V14.01,2013-01-28 15:13:00,
2013-01-28 07:18:00,37.3,27.7,30.09,West,277,4.0,7.0,68,0.00,,---,0.00,VWS V14.01,2013-01-28 15:18:00,
2013-01-28 07:23:00,37.2,28.0,30.09,West,280,6.0,8.0,69,0.00,,---,0.00,VWS V14.01,2013-01-28 15:23:00,
2013-01-28 07:28:00,37.3,28.4,30.09,WNW,286,2.0,8.0,70,0.00,,---,0.00,VWS V14.01,2013-01-28 15:28:00,
2013-01-28 07:33:00,37.5,28.6,30.09,NW,304,4.0,8.0,70,0.00,,---,0.00,VWS V14.01,2013-01-28 15:33:00,
2013-01-28 07:38:00,37.9,28.6,30.09,WNW,300,3.0,8.0,69,0.00,,---,0.00,VWS V14.01,2013-01-28 15:38:00,
2013-01-28 07:43:00,38.3,28.7,30.10,WNW,293,7.0,8.0,68,0.00,,---,0.00,VWS V14.01,2013-01-28 15:43:00,
2013-01-28 07:48:00,38.6,29.0,30.10,WNW,291,4.0,8.0,68,0.00,,---,0.00,VWS V14.01,2013-01-28 15:48:00,
2013-01-28 07:53:00,39.0,28.6,30.10,WNW,294,10.0,13.0,66,0.00,,---,0.00,VWS V14.01,2013-01-28 15:53:00,
2013-01-28 07:58:00,39.5,28.0,30.10,WNW,299,9.0,16.0,63,0.00,,---,0.00,VWS V14.01,2013-01-28 15:58:00,
2013-01-28 08:03:00,39.7,28.1,30.10,WNW,297,10.0,13.0,63,0.00,,---,0.00,VWS V14.01,2013-01-28 16:03:00,
2013-01-28 08:08:00,39.9,28.3,30.10,WNW,290,13.0,18.0,63,0.00,,---,0.00,VWS V14.01,2013-01-28 16:08:00,
2013-01-28 08:13:00,40.1,28.5,30.10,WNW,292,12.0,18.0,63,0.00,,---,0.00,VWS V14.01,2013-01-28 16:13:00,
2013-01-28 08:18:00,40.2,28.2,30.10,West,281,11.0,18.0,62,0.00,,---,0.00,VWS V14.01,2013-01-28 16:18:00,
2013-01-28 08:23:00,40.2,28.2,30.10,WNW,286,6.0,18.0,62,0.00,,---,0.00,VWS V14.01,2013-01-28 16:23:00,
2013-01-28 08:28:00,40.4,28.4,30.10,WNW,293,8.0,18.0,62,0.00,,---,0.00,VWS V14.01,2013-01-28 16:28:00,
2013-01-28 08:33:00,40.5,28.1,30.10,NW,304,5.0,18.0,61,0.00,,---,0.00,VWS V14.01,2013-01-28 16:33:00,
2013-01-28 08:38:00,40.7,28.3,30.11,WNW,290,11.0,18.0,61,0.00,,---,0.00,VWS V14.01,2013-01-28 16:38:00,
2013-01-28 08:43:00,40.7,28.3,30.11,WNW,287,8.0,18.0,61,0.00,,---,0.00,VWS V14.01,2013-01-28 16:43:00,
2013-01-28 08:48:00,40.9,28.1,30.11,West,281,5.0,18.0,60,0.00,,---,0.00,VWS V14.01,2013-01-28 16:48:00,
2013-01-28 08:53:00,41.2,27.6,30.11,WNW,283,10.0,18.0,58,0.00,,---,0.00,VWS V14.01,2013-01-28 16:53:00,
2013-01-28 08:58:00,41.5,27.8,30.11,WNW,290,5.0,19.0,58,0.00,,---,0.00,VWS V14.01,2013-01-28 16:58:00,
2013-01-28 09:03:00,41.9,27.4,30.11,NW,308,10.0,19.0,56,0.00,,---,0.00,VWS V14.01,2013-01-28 17:03:00,
2013-01-28 09:08:00,41.8,27.3,30.12,NW,315,11.0,22.0,56,0.00,,---,0.00,VWS V14.01,2013-01-28 17:08:00,
2013-01-28 09:13:00,41.8,27.3,30.12,WNW,297,14.0,22.0,56,0.00,,---,0.00,VWS V14.01,2013-01-28 17:13:00,
2013-01-28 09:19:00,42.0,27.0,30.12,WNW,301,15.0,22.0,55,0.00,,---,0.00,VWS V14.01,2013-01-28 17:19:00,
2013-01-28 09:24:00,42.2,27.2,30.13,WNW,298,17.0,22.0,55,0.00,,---,0.00,VWS V14.01,2013-01-28 17:24:00,
2013-01-28 09:29:00,42.7,27.2,30.13,WNW,299,20.0,22.0,54,0.00,,---,0.00,VWS V14.01,2013-01-28 17:29:00,
2013-01-28 09:34:00,42.8,27.3,30.13,NW,320,14.0,22.0,54,0.00,,---,0.00,VWS V14.01,2013-01-28 17:34:00,
2013-01-28 09:39:00,42.7,26.8,30.13,WNW,298,14.0,22.0,53,0.00,,---,0.00,VWS V14.01,2013-01-28 17:39:00,
2013-01-28 09:44:00,42.5,26.6,30.14,WNW,300,8.0,22.0,53,0.00,,---,0.00,VWS V14.01,2013-01-28 17:44:00,
2013-01-28 09:49:00,42.2,26.8,30.14,West,276,9.0,22.0,54,0.00,,---,0.00,VWS V14.01,2013-01-28 17:49:00,
2013-01-28 09:54:00,42.0,26.1,30.14,NW,315,14.0,22.0,53,0.00,,---,0.00,VWS V14.01,2013-01-28 17:54:00,
2013-01-28 09:59:00,42.0,26.6,30.14,WNW,301,8.0,22.0,54,0.00,,---,0.00,VWS V14.01,2013-01-28 17:59:00,
2013-01-28 10:04:00,41.9,26.5,30.14,West,281,10.0,18.0,54,0.00,,---,0.00,VWS V14.01,2013-01-28 18:04:00,
2013-01-28 10:09:00,42.0,26.6,30.15,WNW,292,19.0,22.0,54,0.00,,---,0.00,VWS V14.01,2013-01-28 18:09:00,
2013-01-28 10:14:00,42.4,26.5,30.14,NW,304,10.0,22.0,53,0.00,,---,0.00,VWS V14.01,2013-01-28 18:14:00,
2013-01-28 10:19:00,43.1,26.7,30.14,WNW,287,16.0,22.0,52,0.00,,---,0.00,VWS V14.01,2013-01-28 18:19:00,
2013-01-28 10:24:00,43.3,26.9,30.14,WNW,297,11.0,22.0,52,0.00,,---,0.00,VWS V14.01,2013-01-28 18:24:00,
2013-01-28 10:29:00,43.2,26.3,30.14,WNW,302,10.0,22.0,51,0.00,,---,0.00,VWS V14.01,2013-01-28 18:29:00,
2013-01-28 10:34:00,43.2,25.8,30.14,WNW,294,18.0,23.0,50,0.00,,---,0.00,VWS V14.01,2013-01-28 18:34:00,
2013-01-28 10:39:00,43.2,26.3,30.14,NW,304,14.0,23.0,51,0.00,,---,0.00,VWS V14.01,2013-01-28 18:39:00,
2013-01-28 10:44:00,43.4,26.0,30.14,NW,304,14.0,23.0,50,0.00,,---,0.00,VWS V14.01,2013-01-28 18:44:00,
2013-01-28 10:49:00,43.7,26.8,30.13,WNW,300,14.0,23.0,51,0.00,,---,0.00,VWS V14.01,2013-01-28 18:49:00,
2013-01-28 10:54:00,43.9,26.5,30.13,West,279,18.0,23.0,50,0.00,,---,0.00,VWS V14.01,2013-01-28 18:54:00,
2013-01-28 10:59:00,43.8,25.9,30.14,WNW,292,16.0,23.0,49,0.00,,---,0.00,VWS V14.01,2013-01-28 18:59:00,
2013-01-28 11:04:00,43.7,26.8,30.13,WNW,290,17.0,24.0,51,0.00,,---,0.00,VWS V14.01,2013-01-28 19:04:00,
2013-01-28 11:09:00,43.6,26.2,30.14,WNW,286,15.0,25.0,50,0.00,,---,0.00,VWS V14.01,2013-01-28 19:09:00,
2013-01-28 11:14:00,43.7,27.2,30.14,WNW,299,14.0,25.0,52,0.00,,---,0.00,VWS V14.01,2013-01-28 19:14:00,
2013-01-28 11:19:00,43.8,26.9,30.13,WNW,300,9.0,25.0,51,0.00,,---,0.00,VWS V14.01,2013-01-28 19:19:00,
2013-01-28 11:24:00,43.7,26.3,30.14,WNW,300,20.0,25.0,50,0.00,,---,0.00,VWS V14.01,2013-01-28 19:24:00,
2013-01-28 11:29:00,44.5,27.0,30.13,WNW,284,15.0,25.0,50,0.00,,---,0.00,VWS V14.01,2013-01-28 19:29:00,
2013-01-28 11:34:00,44.7,27.2,30.13,WNW,302,17.0,25.0,50,0.00,,---,0.00,VWS V14.01,2013-01-28 19:34:00,
2013-01-28 11:39:00,44.6,27.1,30.13,WNW,290,10.0,25.0,50,0.00,,---,0.00,VWS V14.01,2013-01-28 19:39:00,
2013-01-28 11:44:00,44.8,27.3,30.13,West,278,5.0,25.0,50,0.00,,---,0.00,VWS V14.01,2013-01-28 19:44:00,
2013-01-28 11:49:00,44.6,26.1,30.13,West,269,13.0,25.0,48,0.00,,---,0.00,VWS V14.01,2013-01-28 19:49:00,
2013-01-28 11:54:00,45.0,26.5,30.12,West,262,14.0,25.0,48,0.00,,---,0.00,VWS V14.01,2013-01-28 19:54:00,
2013-01-28 11:59:00,45.1,26.1,30.12,WNW,294,15.0,25.0,47,0.00,,---,0.00,VWS V14.01,2013-01-28 19:59:00,
2013-01-28 12:04:00,45.2,26.7,30.12,West,276,11.0,19.0,48,0.00,,---,0.00,VWS V14.01,2013-01-28 20:04:00,
2013-01-28 12:09:00,45.1,25.6,30.12,WNW,291,12.0,25.0,46,0.00,,---,0.00,VWS V14.01,2013-01-28 20:09:00,
2013-01-28 12:14:00,45.4,26.4,30.12,WNW,291,19.0,25.0,47,0.00,,---,0.00,VWS V14.01,2013-01-28 20:14:00,
2013-01-28 12:19:00,45.4,26.4,30.12,West,260,14.0,25.0,47,0.00,,---,0.00,VWS V14.01,2013-01-28 20:19:00,
2013-01-28 12:24:00,45.3,25.8,30.12,WNW,302,13.0,25.0,46,0.00,,---,0.00,VWS V14.01,2013-01-28 20:24:00,
2013-01-28 12:29:00,45.6,26.5,30.11,WNW,286,23.0,25.0,47,0.00,,---,0.00,VWS V14.01,2013-01-28 20:29:00,
2013-01-28 12:34:00,45.3,25.8,30.12,WNW,300,16.0,25.0,46,0.00,,---,0.00,VWS V14.01,2013-01-28 20:34:00,
2013-01-28 12:39:00,45.5,26.5,30.12,WNW,295,14.0,25.0,47,0.00,,---,0.00,VWS V14.01,2013-01-28 20:39:00,
2013-01-28 12:44:00,45.6,25.5,30.12,NW,315,11.0,25.0,45,0.00,,---,0.00,VWS V14.01,2013-01-28 20:44:00,
2013-01-28 12:49:00,45.7,26.1,30.11,WNW,297,9.0,25.0,46,0.00,,---,0.00,VWS V14.01,2013-01-28 20:49:00,
2013-01-28 12:54:00,45.8,26.2,30.11,WNW,285,15.0,29.0,46,0.00,,---,0.00,VWS V14.01,2013-01-28 20:54:00,
2013-01-28 12:59:00,45.5,25.4,30.11,WNW,299,17.0,21.0,45,0.00,,---,0.00,VWS V14.01,2013-01-28 20:59:00,
2013-01-28 13:04:00,45.5,25.4,30.11,West,267,14.0,26.0,45,0.00,,---,0.00,VWS V14.01,2013-01-28 21:04:00,
2013-01-28 13:09:00,45.5,25.9,30.11,WNW,300,29.0,29.0,46,0.00,,---,0.00,VWS V14.01,2013-01-28 21:09:00,
2013-01-28 13:14:00,45.4,25.3,30.11,NW,304,9.0,29.0,45,0.00,,---,0.00,VWS V14.01,2013-01-28 21:14:00,
2013-01-28 13:19:00,45.4,25.3,30.11,NW,307,17.0,29.0,45,0.00,,---,0.00,VWS V14.01,2013-01-28 21:19:00,
2013-01-28 13:25:00,45.3,24.7,30.11,WNW,300,17.0,29.0,44,0.00,,---,0.00,VWS V14.01,2013-01-28 21:25:00,
2013-01-28 13:30:00,45.4,24.8,30.11,WNW,293,18.0,29.0,44,0.00,,---,0.00,VWS V14.01,2013-01-28 21:30:00,
2013-01-28 13:35:00,45.3,25.2,30.11,WNW,302,20.0,29.0,45,0.00,,---,0.00,VWS V14.01,2013-01-28 21:35:00,
2013-01-28 13:40:00,45.2,24.6,30.12,NNW,329,16.0,29.0,44,0.00,,---,0.00,VWS V14.01,2013-01-28 21:40:00,
2013-01-28 13:45:00,45.2,25.1,30.11,WNW,286,14.0,29.0,45,0.00,,---,0.00,VWS V14.01,2013-01-28 21:45:00,
2013-01-28 13:50:00,45.4,24.2,30.11,WNW,299,7.0,29.0,43,0.00,,---,0.00,VWS V14.01,2013-01-28 21:50:00,
2013-01-28 13:55:00,45.7,26.6,30.11,WNW,296,19.0,29.0,47,0.00,,---,0.00,VWS V14.01,2013-01-28 21:55:00,
2013-01-28 14:00:00,45.5,24.9,30.11,West,274,14.0,19.0,44,0.00,,---,0.00,VWS V14.01,2013-01-28 22:00:00,
2013-01-28 14:05:00,45.5,24.9,30.11,WNW,291,17.0,28.0,44,0.00,,---,0.00,VWS V14.01,2013-01-28 22:05:00,
2013-01-28 14:10:00,45.6,25.5,30.11,WNW,291,21.0,29.0,45,0.00,,---,0.00,VWS V14.01,2013-01-28 22:10:00,
2013-01-28 14:15:00,45.6,27.1,30.11,WNW,292,20.0,29.0,48,0.00,,---,0.00,VWS V14.01,2013-01-28 22:15:00,
2013-01-28 14:20:00,45.4,25.9,30.11,WNW,287,12.0,30.0,46,0.00,,---,0.00,VWS V14.01,2013-01-28 22:20:00,
2013-01-28 14:25:00,45.3,25.2,30.11,WNW,292,16.0,30.0,45,0.00,,---,0.00,VWS V14.01,2013-01-28 22:25:00,
2013-01-28 14:30:00,45.3,25.8,30.10,WNW,297,19.0,30.0,46,0.00,,---,0.00,VWS V14.01,2013-01-28 22:30:00,
2013-01-28 14:35:00,45.2,25.7,30.11,WNW,290,18.0,30.0,46,0.00,,---,0.00,VWS V14.01,2013-01-28 22:35:00,
2013-01-28 14:40:00,45.3,25.2,30.11,NW,306,19.0,30.0,45,0.00,,---,0.00,VWS V14.01,2013-01-28 22:40:00,
2013-01-28 14:45:00,45.1,25.6,30.11,NW,304,14.0,30.0,46,0.00,,---,0.00,VWS V14.01,2013-01-28 22:45:00,
2013-01-28 14:50:00,44.9,26.4,30.11,West,270,19.0,30.0,48,0.00,,---,0.00,VWS V14.01,2013-01-28 22:50:00,
2013-01-28 14:55:00,44.8,26.3,30.11,NW,307,22.0,30.0,48,0.00,,---,0.00,VWS V14.01,2013-01-28 22:55:00,
2013-01-28 15:00:00,44.9,25.9,30.12,WNW,292,22.0,25.0,47,0.00,,---,0.00,VWS V14.01,2013-01-28 23:00:00,
2013-01-28 15:05:00,44.9,25.9,30.11,NW,312,19.0,31.0,47,0.00,,---,0.00,VWS V14.01,2013-01-28 23:05:00,
2013-01-28 15:10:00,44.8,25.8,30.12,WNW,299,12.0,31.0,47,0.00,,---,0.00,VWS V14.01,2013-01-28 23:10:00,
2013-01-28 15:15:00,44.7,25.7,30.11,NW,311,19.0,31.0,47,0.00,,---,0.00,VWS V14.01,2013-01-28 23:15:00,
2013-01-28 15:20:00,44.9,25.9,30.12,WNW,300,16.0,31.0,47,0.00,,---,0.00,VWS V14.01,2013-01-28 23:20:00,
2013-01-28 15:25:00,45.2,26.2,30.12,West,274,15.0,31.0,47,0.00,,---,0.00,VWS V14.01,2013-01-28 23:25:00,
2013-01-28 15:30:00,45.0,26.5,30.12,NW,306,13.0,31.0,48,0.00,,---,0.00,VWS V14.01,2013-01-28 23:30:00,
2013-01-28 15:35:00,44.8,26.8,30.12,WNW,297,15.0,31.0,49,0.00,,---,0.00,VWS V14.01,2013-01-28 23:35:00,
2013-01-28 15:40:00,44.8,26.8,30.13,WNW,283,14.0,31.0,49,0.00,,---,0.00,VWS V14.01,2013-01-28 23:40:00,
2013-01-28 15:45:00,44.5,26.5,30.13,WNW,299,15.0,31.0,49,0.00,,---,0.00,VWS V14.01,2013-01-28 23:45:00,
2013-01-28 15:50:00,44.4,26.5,30.13,NW,316,11.0,31.0,49,0.00,,---,0.00,VWS V14.01,2013-01-28 23:50:00,
2013-01-28 15:55:00,44.4,26.5,30.13,West,277,13.0,31.0,49,0.00,,---,0.00,VWS V14.01,2013-01-28 23:55:00,
2013-01-28 16:00:00,44.4,26.5,30.13,WNW,293,13.0,18.0,49,0.00,,---,0.00,VWS V14.01,2013-01-29 00:00:00,
2013-01-28 16:05:00,44.1,26.7,30.13,WNW,299,15.0,22.0,50,0.00,,---,0.00,VWS V14.01,2013-01-29 00:05:00,
2013-01-28 16:10:00,44.1,26.2,30.14,WNW,290,11.0,22.0,49,0.00,,---,0.00,VWS V14.01,2013-01-29 00:10:00,
2013-01-28 16:15:00,44.3,26.4,30.13,WNW,297,18.0,22.0,49,0.00,,---,0.00,VWS V14.01,2013-01-29 00:15:00,
2013-01-28 16:20:00,44.3,25.9,30.13,West,276,6.0,22.0,48,0.00,,---,0.00,VWS V14.01,2013-01-29 00:20:00,
2013-01-28 16:25:00,44.4,26.0,30.14,West,278,13.0,22.0,48,0.00,,---,0.00,VWS V14.01,2013-01-29 00:25:00,
2013-01-28 16:30:00,44.2,25.8,30.14,WNW,288,8.0,22.0,48,0.00,,---,0.00,VWS V14.01,2013-01-29 00:30:00,
2013-01-28 16:35:00,44.0,26.1,30.14,NW,304,9.0,22.0,49,0.00,,---,0.00,VWS V14.01,2013-01-29 00:35:00,
2013-01-28 16:40:00,43.9,26.0,30.14,NW,304,12.0,22.0,49,0.00,,---,0.00,VWS V14.01,2013-01-29 00:40:00,
2013-01-28 16:45:00,44.0,26.1,30.14,West,267,14.0,22.0,49,0.00,,---,0.00,VWS V14.01,2013-01-29 00:45:00,
2013-01-28 16:50:00,43.7,26.3,30.15,WNW,293,12.0,22.0,50,0.00,,---,0.00,VWS V14.01,2013-01-29 00:50:00,
2013-01-28 16:55:00,43.3,25.9,30.14,WNW,299,11.0,22.0,50,0.00,,---,0.00,VWS V14.01,2013-01-29 00:55:00,
2013-01-28 17:00:00,42.9,25.6,30.14,WNW,283,9.0,15.0,50,0.00,,---,0.00,VWS V14.01,2013-01-29 01:00:00,
2013-01-28 17:05:00,42.7,25.9,30.14,WNW,300,14.0,22.0,51,0.00,,---,0.00,VWS V14.01,2013-01-29 01:05:00,
2013-01-28 17:10:00,42.5,25.2,30.14,WNW,297,13.0,22.0,50,0.00,,---,0.00,VWS V14.01,2013-01-29 01:10:00,
2013-01-28 17:15:00,42.4,25.6,30.14,WNW,302,10.0,22.0,51,0.00,,---,0.00,VWS V14.01,2013-01-29 01:15:00,
2013-01-28 17:20:00,42.2,25.9,30.15,WNW,290,10.0,22.0,52,0.00,,---,0.00,VWS V14.01,2013-01-29 01:20:00,
2013-01-28 17:26:00,41.9,26.0,30.15,WNW,287,10.0,22.0,53,0.00,,---,0.00,VWS V14.01,2013-01-29 01:26:00,
2013-01-28 17:31:00,41.6,25.8,30.15,NW,311,8.0,22.0,53,0.00,,---,0.00,VWS V14.01,2013-01-29 01:31:00,
2013-01-28 17:36:00,41.5,26.1,30.15,WNW,297,4.0,22.0,54,0.00,,---,0.00,VWS V14.01,2013-01-29 01:36:00,
2013-01-28 17:41:00,41.3,25.9,30.15,WNW,290,5.0,22.0,54,0.00,,---,0.00,VWS V14.01,2013-01-29 01:41:00,
2013-01-28 17:46:00,40.9,26.4,30.15,WNW,286,6.0,22.0,56,0.00,,---,0.00,VWS V14.01,2013-01-29 01:46:00,
2013-01-28 17:51:00,40.6,26.6,30.15,West,276,6.0,22.0,57,0.00,,---,0.00,VWS V14.01,2013-01-29 01:51:00,
2013-01-28 17:56:00,40.4,26.8,30.16,WNW,297,6.0,22.0,58,0.00,,---,0.00,VWS V14.01,2013-01-29 01:56:00,
2013-01-28 18:01:00,40.3,26.7,30.16,West,269,5.0,10.0,58,0.00,,---,0.00,VWS V14.01,2013-01-29 02:01:00,
2013-01-28 18:06:00,40.1,26.5,30.17,WNW,294,2.0,10.0,58,0.00,,---,0.00,VWS V14.01,2013-01-29 02:06:00,
2013-01-28 18:11:00,40.0,26.8,30.17,WNW,297,5.0,10.0,59,0.00,,---,0.00,VWS V14.01,2013-01-29 02:11:00,
2013-01-28 18:16:00,39.9,27.2,30.17,WNW,290,5.0,10.0,60,0.00,,---,0.00,VWS V14.01,2013-01-29 02:16:00,
2013-01-28 18:21:00,39.8,27.5,30.17,West,276,4.0,10.0,61,0.00,,---,0.00,VWS V14.01,2013-01-29 02:21:00,
2013-01-28 18:26:00,39.7,27.4,30.17,WNW,290,4.0,10.0,61,0.00,,---,0.00,VWS V14.01,2013-01-29 02:26:00,
2013-01-28 18:31:00,39.7,27.4,30.17,West,281,2.0,10.0,61,0.00,,---,0.00,VWS V14.01,2013-01-29 02:31:00,
2013-01-28 18:36:00,39.6,27.3,30.17,West,260,3.0,10.0,61,0.00,,---,0.00,VWS V14.01,2013-01-29 02:36:00,
2013-01-28 18:41:00,39.4,27.5,30.17,West,262,5.0,10.0,62,0.00,,---,0.00,VWS V14.01,2013-01-29 02:41:00,
2013-01-28 18:46:00,39.3,27.4,30.17,WNW,302,10.0,12.0,62,0.00,,---,0.00,VWS V14.01,2013-01-29 02:46:00,
2013-01-28 18:51:00,40.0,26.4,30.17,WNW,297,9.0,18.0,58,0.00,,---,0.00,VWS V14.01,2013-01-29 02:51:00,
2013-01-28 18:56:00,40.4,26.8,30.17,WNW,297,12.0,18.0,58,0.00,,---,0.00,VWS V14.01,2013-01-29 02:56:00,
2013-01-28 19:01:00,40.3,27.1,30.17,West,281,8.0,12.0,59,0.00,,---,0.00,VWS V14.01,2013-01-29 03:01:00,
2013-01-28 19:06:00,40.5,26.9,30.17,WNW,290,8.0,17.0,58,0.00,,---,0.00,VWS V14.01,2013-01-29 03:06:00,
2013-01-28 19:11:00,40.8,26.3,30.17,West,276,8.0,17.0,56,0.00,,---,0.00,VWS V14.01,2013-01-29 03:11:00,
2013-01-28 19:16:00,40.8,27.2,30.17,WNW,297,9.0,17.0,58,0.00,,---,0.00,VWS V14.01,2013-01-29 03:16:00,
2013-01-28 19:21:00,40.6,27.4,30.17,WNW,292,12.0,17.0,59,0.00,,---,0.00,VWS V14.01,2013-01-29 03:21:00,
2013-01-28 19:26:00,40.3,27.1,30.17,WNW,291,6.0,17.0,59,0.00,,---,0.00,VWS V14.01,2013-01-29 03:26:00,
2013-01-28 19:31:00,40.0,27.2,30.17,SW,224,1.0,17.0,60,0.00,,---,0.00,VWS V14.01,2013-01-29 03:31:00,
2013-01-28 19:36:00,39.5,27.6,30.18,SW,220,2.0,17.0,62,0.00,,---,0.00,VWS V14.01,2013-01-29 03:36:00,
2013-01-28 19:41:00,39.1,27.6,30.18,SSW,213,1.0,17.0,63,0.00,,---,0.00,VWS V14.01,2013-01-29 03:41:00,
2013-01-28 19:46:00,39.0,27.9,30.18,WSW,243,5.0,17.0,64,0.00,,---,0.00,VWS V14.01,2013-01-29 03:46:00,
2013-01-28 19:51:00,39.1,27.6,30.19,SW,224,4.0,17.0,63,0.00,,---,0.00,VWS V14.01,2013-01-29 03:51:00,
2013-01-28 19:56:00,39.3,27.8,30.18,WSW,246,7.0,17.0,63,0.00,,---,0.00,VWS V14.01,2013-01-29 03:56:00,
2013-01-28 20:01:00,39.5,27.6,30.18,West,266,3.0,7.0,62,0.00,,---,0.00,VWS V14.01,2013-01-29 04:01:00,
2013-01-28 20:06:00,39.5,27.6,30.18,WSW,255,4.0,9.0,62,0.00,,---,0.00,VWS V14.01,2013-01-29 04:06:00,
2013-01-28 20:11:00,39.4,27.5,30.18,West,269,3.0,9.0,62,0.00,,---,0.00,VWS V14.01,2013-01-29 04:11:00,
2013-01-28 20:16:00,39.2,27.7,30.18,West,262,4.0,9.0,63,0.00,,---,0.00,VWS V14.01,2013-01-29 04:16:00,
2013-01-28 20:21:00,39.2,27.7,30.18,West,278,4.0,9.0,63,0.00,,---,0.00,VWS V14.01,2013-01-29 04:21:00,
2013-01-28 20:26:00,39.3,27.4,30.18,WSW,253,7.0,9.0,62,0.00,,---,0.00,VWS V14.01,2013-01-29 04:26:00,
2013-01-28 20:31:00,39.6,27.7,30.19,WSW,253,8.0,9.0,62,0.00,,---,0.00,VWS V14.01,2013-01-29 04:31:00,
2013-01-28 20:36:00,39.8,27.5,30.19,WSW,257,4.0,9.0,61,0.00,,---,0.00,VWS V14.01,2013-01-29 04:36:00,
2013-01-28 20:41:00,39.8,27.5,30.19,WNW,290,4.0,9.0,61,0.00,,---,0.00,VWS V14.01,2013-01-29 04:41:00,
2013-01-28 20:46:00,39.9,27.6,30.19,WSW,255,6.0,9.0,61,0.00,,---,0.00,VWS V14.01,2013-01-29 04:46:00,
2013-01-28 20:51:00,40.0,27.2,30.18,WNW,300,9.0,13.0,60,0.00,,---,0.00,VWS V14.01,2013-01-29 04:51:00,
2013-01-28 20:57:00,40.1,27.4,30.17,WNW,300,11.0,14.0,60,0.00,,---,0.00,VWS V14.01,2013-01-29 04:57:00,
2013-01-28 21:03:00,40.1,27.8,30.17,WNW,288,16.0,18.0,61,0.00,,---,0.00,VWS V14.01,2013-01-29 05:03:00,
2013-01-28 21:04:00,40.1,27.8,30.17,WNW,283,10.0,19.0,61,0.00,,---,0.00,VWS V14.01,2013-01-29 05:04:00,
2013-01-28 21:08:00,40.1,27.8,30.17,WNW,284,13.0,19.0,61,0.00,,---,0.00,VWS V14.01,2013-01-29 05:08:00,
2013-01-28 21:11:00,40.1,27.8,30.18,WNW,302,10.0,19.0,61,0.00,,---,0.00,VWS V14.01,2013-01-29 05:11:00,
2013-01-28 21:16:00,40.0,27.6,30.18,WNW,287,12.0,19.0,61,0.00,,---,0.00,VWS V14.01,2013-01-29 05:16:00,
2013-01-28 21:21:00,39.8,27.9,30.19,SW,214,2.0,19.0,62,0.00,,---,0.00,VWS V14.01,2013-01-29 05:21:00,
2013-01-28 21:26:00,39.5,27.6,30.19,SW,234,3.0,19.0,62,0.00,,---,0.00,VWS V14.01,2013-01-29 05:26:00,
2013-01-28 21:31:00,39.3,27.8,30.19,WSW,240,4.0,19.0,63,0.00,,---,0.00,VWS V14.01,2013-01-29 05:31:00,
2013-01-28 21:36:00,39.1,27.6,30.19,SW,234,0.0,19.0,63,0.00,,---,0.00,VWS V14.01,2013-01-29 05:36:00,
2013-01-28 21:41:00,39.2,27.7,30.19,WNW,291,7.0,19.0,63,0.00,,---,0.00,VWS V14.01,2013-01-29 05:41:00,
2013-01-28 21:46:00,39.2,27.7,30.19,West,277,5.0,19.0,63,0.00,,---,0.00,VWS V14.01,2013-01-29 05:46:00,
2013-01-28 21:51:00,39.2,27.7,30.19,WNW,291,8.0,19.0,63,0.00,,---,0.00,VWS V14.01,2013-01-29 05:51:00,
2013-01-28 21:56:00,39.1,27.6,30.18,WNW,294,4.0,19.0,63,0.00,,---,0.00,VWS V14.01,2013-01-29 05:56:00,
2013-01-28 22:01:00,39.2,27.7,30.18,West,281,2.0,8.0,63,0.00,,---,0.00,VWS V14.01,2013-01-29 06:01:00,
2013-01-28 22:06:00,39.3,27.8,30.18,West,278,3.0,9.0,63,0.00,,---,0.00,VWS V14.01,2013-01-29 06:06:00,
2013-01-28 22:11:00,39.3,27.4,30.18,WSW,256,6.0,10.0,62,0.00,,---,0.00,VWS V14.01,2013-01-29 06:11:00,
2013-01-28 22:16:00,39.5,27.6,30.19,WNW,302,9.0,11.0,62,0.00,,---,0.00,VWS V14.01,2013-01-29 06:16:00,
2013-01-28 22:21:00,39.7,27.8,30.19,WNW,299,4.0,12.0,62,0.00,,---,0.00,VWS V14.01,2013-01-29 06:21:00,
2013-01-28 22:26:00,39.6,27.7,30.19,WNW,290,6.0,12.0,62,0.00,,---,0.00,VWS V14.01,2013-01-29 06:26:00,
2013-01-28 22:31:00,39.6,27.7,30.19,West,262,6.0,12.0,62,0.00,,---,0.00,VWS V14.01,2013-01-29 06:31:00,
2013-01-28 22:36:00,39.5,27.6,30.19,West,280,7.0,13.0,62,0.00,,---,0.00,VWS V14.01,2013-01-29 06:36:00,
2013-01-28 22:41:00,39.5,28.0,30.19,WNW,299,7.0,13.0,63,0.00,,---,0.00,VWS V14.01,2013-01-29 06:41:00,
2013-01-28 22:46:00,39.6,28.1,30.20,WNW,287,8.0,13.0,63,0.00,,---,0.00,VWS V14.01,2013-01-29 06:46:00,
2013-01-28 22:51:00,39.6,28.1,30.19,West,264,8.0,13.0,63,0.00,,---,0.00,VWS V14.01,2013-01-29 06:51:00,
2013-01-28 22:56:00,39.6,28.1,30.19,West,267,4.0,13.0,63,0.00,,---,0.00,VWS V14.01,2013-01-29 06:56:00,
2013-01-28 23:01:00,39.6,28.1,30.20,WNW,290,6.0,8.0,63,0.00,,---,0.00,VWS V14.01,2013-01-29 07:01:00,
2013-01-28 23:06:00,39.5,28.0,30.19,West,269,3.0,10.0,63,0.00,,---,0.00,VWS V14.01,2013-01-29 07:06:00,
2013-01-28 23:11:00,39.4,27.9,30.19,WNW,300,4.0,10.0,63,0.00,,---,0.00,VWS V14.01,2013-01-29 07:11:00,
2013-01-28 23:16:00,39.1,28.0,30.19,West,271,3.0,10.0,64,0.00,,---,0.00,VWS V14.01,2013-01-29 07:16:00,
2013-01-28 23:21:00,39.0,27.9,30.19,West,281,6.0,10.0,64,0.00,,---,0.00,VWS V14.01,2013-01-29 07:21:00,
2013-01-28 23:26:00,38.9,27.8,30.20,WNW,284,8.0,10.0,64,0.00,,---,0.00,VWS V14.01,2013-01-29 07:26:00,
2013-01-28 23:31:00,39.1,28.0,30.20,West,271,4.0,10.0,64,0.00,,---,0.00,VWS V14.01,2013-01-29 07:31:00,
2013-01-28 23:36:00,39.2,28.1,30.20,West,273,6.0,13.0,64,0.00,,---,0.00,VWS V14.01,2013-01-29 07:36:00,
2013-01-28 23:41:00,39.5,28.4,30.20,West,274,6.0,13.0,64,0.00,,---,0.00,VWS V14.01,2013-01-29 07:41:00,
2013-01-28 23:46:00,39.7,28.5,30.20,WNW,302,4.0,14.0,64,0.00,,---,0.00,VWS V14.01,2013-01-29 07:46:00,
2013-01-28 23:51:00,39.6,28.4,30.21,West,274,14.0,14.0,64,0.00,,---,0.00,VWS V14.01,2013-01-29 07:51:00,
2013-01-28 23:56:00,39.7,28.1,30.20,West,262,4.0,14.0,63,0.00,,---,0.00,VWS V14.01,2013-01-29 07:56:00,